Location: Beutels
(47.8767°N, 9.8584°E)
Time: 05:34:29
(UTC+00:00)

DELTA 2 R/B (1) - Pass Details

Date: 19 May 2025
Orbit: 788 x 800 km, 39.6° (Epoch: 14 June)

Event Time Altitude Azimuth Distance (km) Brightness Sun altitude
Rises 20:27:53 0° 232° (SW) 3,268 6.8 -12.3°
Reaches altitude 10° 20:30:40 10° 220° (SW) 2,342 5.9 -12.6°
Maximum altitude 20:35:16 28° 164° (SSE) 1,458 4.4 -13.1°
Enters shadow 20:38:26 17° 117° (ESE) 1,933 5.0 -13.4°
